KLM1266 EKCH-EHAM

Flight info

Callsign KLM1266
Flight time 1h 20m
Altitude 36000
Route LANGO DCT ALASA DCT WANZA DCT KUBAT T200 BLUFA
Aircraft B738/M-SDE2E3FGHIRWXY/LB1

Departure

Time 2026-05-04 11:58
Airport Copenhagen Kastrup Airport (EKCH)

Arrival

Time 2026-05-04 13:18
Airport Amsterdam Airport Schiphol (EHAM)
Time Latitude Longitude Altitude Speed Heading
2026-05-04 11:23 55.62648 12.64559 23 ft 0 kts 281°
2026-05-04 11:46 55.62646 12.64580 25 ft 4 kts 277°
2026-05-04 11:47 55.62645 12.64627 28 ft 4 kts 258°
2026-05-04 11:47 55.62655 12.64665 27 ft 4 kts 209°
2026-05-04 11:47 55.62653 12.64668 27 ft 4 kts 192°
2026-05-04 11:47 55.62627 12.64659 26 ft 4 kts 190°
2026-05-04 11:48 55.62600 12.64653 23 ft 4 kts 185°
2026-05-04 11:48 55.62578 12.64652 23 ft 3 kts 181°
2026-05-04 11:48 55.62552 12.64652 23 ft 4 kts 179°
2026-05-04 11:48 55.62535 12.64653 23 ft 0 kts 179°
2026-05-04 11:51 55.62529 12.64653 23 ft 3 kts 177°
2026-05-04 11:52 55.62483 12.64655 23 ft 9 kts 194°
2026-05-04 11:52 55.62466 12.64565 23 ft 9 kts 290°
2026-05-04 11:52 55.62445 12.64477 23 ft 9 kts 205°
2026-05-04 11:52 55.62382 12.64444 23 ft 11 kts 195°
2026-05-04 11:53 55.62301 12.64406 22 ft 14 kts 195°
2026-05-04 11:53 55.62234 12.64373 20 ft 16 kts 200°
2026-05-04 11:53 55.62094 12.64257 23 ft 17 kts 206°
2026-05-04 11:53 55.61984 12.64164 23 ft 18 kts 206°
2026-05-04 11:55 55.61523 12.63912 26 ft 5 kts 220°
2026-05-04 11:55 55.61487 12.63857 4 ft 8 kts 221°
2026-05-04 11:56 55.61424 12.63758 24 ft 10 kts 221°
2026-05-04 11:56 55.61368 12.63672 27 ft 11 kts 220°
2026-05-04 11:56 55.61331 12.63615 26 ft 10 kts 221°
2026-05-04 11:56 55.61275 12.63529 27 ft 11 kts 221°
2026-05-04 11:57 55.61244 12.63481 26 ft 0 kts 222°
2026-05-04 11:57 55.61244 12.63480 26 ft 0 kts 221°
2026-05-04 11:57 55.61176 12.63375 27 ft 41 kts 221°
2026-05-04 11:57 55.60769 12.62740 25 ft 112 kts 221°
2026-05-04 11:58 55.60036 12.61608 94 ft 163 kts 224°
2026-05-04 11:58 55.59177 12.60344 957 ft 153 kts 225°
2026-05-04 11:58 55.58382 12.59179 1887 ft 147 kts 224°
2026-05-04 11:58 55.57569 12.57978 2359 ft 167 kts 224°
2026-05-04 11:59 55.56617 12.56518 2654 ft 189 kts 231°
2026-05-04 11:59 55.55964 12.54401 2874 ft 205 kts 258°
2026-05-04 11:59 55.55825 12.51827 3233 ft 215 kts 266°
2026-05-04 11:59 55.55271 12.49321 3685 ft 229 kts 235°
2026-05-04 12:00 55.54234 12.47057 4031 ft 246 kts 235°
2026-05-04 12:00 55.53174 12.44622 4784 ft 250 kts 236°
2026-05-04 12:00 55.52150 12.42148 5614 ft 251 kts 237°
2026-05-04 12:00 55.51141 12.39601 6377 ft 254 kts 238°
2026-05-04 12:01 55.50153 12.37023 7161 ft 254 kts 239°
2026-05-04 12:01 55.49176 12.34412 7905 ft 256 kts 239°
2026-05-04 12:02 55.43070 12.17444 11409 ft 300 kts 239°
2026-05-04 12:03 55.41958 12.14323 12140 ft 302 kts 240°
2026-05-04 12:03 55.40834 12.11165 12880 ft 305 kts 240°
2026-05-04 12:03 55.39703 12.07990 13609 ft 308 kts 240°
2026-05-04 12:03 55.38559 12.04777 14313 ft 311 kts 240°
2026-05-04 12:04 55.37407 12.01547 15044 ft 313 kts 240°
2026-05-04 12:04 55.36289 11.98416 15735 ft 315 kts 240°
2026-05-04 12:04 55.35122 11.95152 16459 ft 317 kts 240°
2026-05-04 12:04 55.33945 11.91859 17160 ft 320 kts 240°
2026-05-04 12:05 55.32755 11.88538 17837 ft 323 kts 240°
2026-05-04 12:05 55.31554 11.85189 18485 ft 326 kts 240°
2026-05-04 12:05 55.30339 11.81804 19105 ft 328 kts 240°
2026-05-04 12:05 55.29138 11.78460 19707 ft 330 kts 239°
2026-05-04 12:06 55.27910 11.75049 20311 ft 332 kts 239°
2026-05-04 12:06 55.26667 11.71602 20904 ft 335 kts 239°
2026-05-04 12:06 55.25414 11.68137 21436 ft 339 kts 239°
2026-05-04 12:06 55.24143 11.64652 22033 ft 341 kts 239°
2026-05-04 12:07 55.22851 11.61153 22605 ft 343 kts 239°
2026-05-04 12:07 55.21544 11.57625 23129 ft 347 kts 239°
2026-05-04 12:07 55.20226 11.54071 23650 ft 349 kts 239°
2026-05-04 12:07 55.18898 11.50494 24131 ft 351 kts 239°
2026-05-04 12:08 55.17567 11.46910 24601 ft 352 kts 239°
2026-05-04 12:08 55.16230 11.43312 25045 ft 354 kts 239°
2026-05-04 12:08 55.14882 11.39685 25489 ft 356 kts 238°
2026-05-04 12:08 55.13526 11.36043 25924 ft 359 kts 238°
2026-05-04 12:09 55.12158 11.32376 26344 ft 361 kts 238°
2026-05-04 12:09 55.10786 11.28699 26749 ft 363 kts 238°
2026-05-04 12:09 55.09401 11.24997 27157 ft 365 kts 238°
2026-05-04 12:09 55.08005 11.21269 27574 ft 367 kts 238°
2026-05-04 12:10 55.06606 11.17539 27993 ft 368 kts 238°
2026-05-04 12:10 55.05200 11.13794 28386 ft 370 kts 238°
2026-05-04 12:10 55.03782 11.10024 28762 ft 372 kts 238°
2026-05-04 12:10 55.02356 11.06236 29121 ft 375 kts 238°
2026-05-04 12:11 55.00933 11.02464 29764 ft 368 kts 238°
2026-05-04 12:11 54.99590 10.98908 30263 ft 366 kts 238°
2026-05-04 12:11 54.98180 10.95176 30410 ft 372 kts 238°
2026-05-04 12:11 54.96735 10.91362 30419 ft 381 kts 238°
2026-05-04 12:12 54.95267 10.87476 30561 ft 386 kts 239°
2026-05-04 12:12 54.94122 10.83269 30803 ft 387 kts 253°
2026-05-04 12:12 54.93430 10.78748 31121 ft 387 kts 255°
2026-05-04 12:12 54.92774 10.74202 31356 ft 390 kts 255°
2026-05-04 12:13 54.92111 10.69613 31559 ft 393 kts 255°
2026-05-04 12:14 54.87190 10.36961 33079 ft 406 kts 254°
2026-05-04 12:15 54.86465 10.32239 33386 ft 405 kts 254°
2026-05-04 12:15 54.85736 10.27506 33692 ft 405 kts 254°
2026-05-04 12:15 54.85008 10.22799 33946 ft 405 kts 254°
2026-05-04 12:15 54.84275 10.18065 34148 ft 406 kts 254°
2026-05-04 12:16 54.83542 10.13337 34367 ft 405 kts 253°
2026-05-04 12:16 54.82812 10.08641 34669 ft 403 kts 253°
2026-05-04 12:16 54.82079 10.03948 34828 ft 404 kts 253°
2026-05-04 12:16 54.81348 9.99400 34963 ft 406 kts 251°
2026-05-04 12:17 54.80315 9.94842 35109 ft 407 kts 244°
2026-05-04 12:17 54.78911 9.90574 35286 ft 408 kts 238°
2026-05-04 12:17 54.77378 9.86422 35474 ft 409 kts 238°
2026-05-04 12:17 54.75844 9.82270 35624 ft 410 kts 238°
2026-05-04 12:18 54.74310 9.78107 35798 ft 411 kts 238°
2026-05-04 12:18 54.72773 9.73925 35962 ft 412 kts 239°
2026-05-04 12:18 54.69682 9.65487 35988 ft 417 kts 239°
2026-05-04 12:19 54.66582 9.57032 35987 ft 416 kts 239°
2026-05-04 12:19 54.63488 9.48618 35962 ft 414 kts 238°
2026-05-04 12:20 54.60410 9.40273 35979 ft 411 kts 238°
2026-05-04 12:20 54.57358 9.32027 35986 ft 410 kts 238°
2026-05-04 12:21 54.54292 9.23773 35992 ft 409 kts 238°
2026-05-04 12:21 54.51220 9.15530 35994 ft 409 kts 238°
2026-05-04 12:22 54.48141 9.07294 35999 ft 410 kts 238°
2026-05-04 12:22 54.45097 8.99176 36006 ft 412 kts 238°
2026-05-04 12:23 54.41978 8.90889 35990 ft 414 kts 238°
2026-05-04 12:23 54.38843 8.82585 36006 ft 415 kts 238°
2026-05-04 12:24 54.35695 8.74275 36007 ft 416 kts 238°
2026-05-04 12:24 54.32532 8.65952 36014 ft 417 kts 238°
2026-05-04 12:25 54.29362 8.57634 36013 ft 417 kts 238°
2026-05-04 12:25 54.26191 8.49336 36011 ft 417 kts 238°
2026-05-04 12:26 54.22984 8.41093 36016 ft 417 kts 234°
2026-05-04 12:26 54.19002 8.33970 36012 ft 418 kts 225°
2026-05-04 12:27 54.14752 8.27192 36016 ft 418 kts 225°
2026-05-04 12:27 54.10527 8.20420 36021 ft 417 kts 225°
2026-05-04 12:28 54.06318 8.13646 36021 ft 416 kts 225°
2026-05-04 12:28 54.02111 8.06879 36021 ft 416 kts 225°
2026-05-04 12:29 53.97916 8.00145 35999 ft 415 kts 225°
2026-05-04 12:29 53.93787 7.93540 36011 ft 414 kts 225°
2026-05-04 12:30 53.89600 7.86860 36026 ft 413 kts 225°
2026-05-04 12:30 53.85406 7.80188 36024 ft 413 kts 225°
2026-05-04 12:31 53.81207 7.73528 36023 ft 413 kts 225°
2026-05-04 12:31 53.77004 7.66881 36023 ft 414 kts 225°
2026-05-04 12:32 53.70688 7.56927 36014 ft 414 kts 225°
2026-05-04 12:33 53.66506 7.50361 36022 ft 413 kts 225°
2026-05-04 12:33 53.62295 7.43767 36021 ft 413 kts 225°
2026-05-04 12:34 53.58062 7.37157 35496 ft 419 kts 225°
2026-05-04 12:34 53.55933 7.33838 34913 ft 417 kts 225°
2026-05-04 12:34 53.53815 7.30544 34371 ft 414 kts 225°
2026-05-04 12:34 53.51701 7.27259 33715 ft 413 kts 225°
2026-05-04 12:35 53.49608 7.24012 33253 ft 406 kts 225°
2026-05-04 12:35 53.47545 7.20817 32806 ft 400 kts 225°
2026-05-04 12:35 53.45511 7.17670 32368 ft 395 kts 225°
2026-05-04 12:35 53.43510 7.14578 31950 ft 390 kts 225°
2026-05-04 12:36 53.41528 7.11516 31526 ft 384 kts 225°
2026-05-04 12:36 53.39570 7.08494 31098 ft 380 kts 225°
2026-05-04 12:36 53.37635 7.05513 30677 ft 376 kts 225°
2026-05-04 12:36 53.35724 7.02576 30258 ft 371 kts 224°
2026-05-04 12:37 53.33889 6.99764 29825 ft 368 kts 224°
2026-05-04 12:37 53.31966 6.97009 29519 ft 361 kts 222°
2026-05-04 12:37 53.30024 6.94402 29224 ft 354 kts 221°
2026-05-04 12:37 53.28075 6.91836 28932 ft 359 kts 221°
2026-05-04 12:38 53.26123 6.89270 28505 ft 354 kts 221°
2026-05-04 12:38 53.24203 6.86744 28090 ft 350 kts 221°
2026-05-04 12:38 53.22328 6.84268 27679 ft 346 kts 221°
2026-05-04 12:38 53.20452 6.81784 27265 ft 343 kts 221°
2026-05-04 12:39 53.18590 6.79315 26858 ft 340 kts 221°
2026-05-04 12:39 53.16753 6.76879 26448 ft 337 kts 222°
2026-05-04 12:39 53.14922 6.74453 26049 ft 334 kts 222°
2026-05-04 12:39 53.13109 6.72050 25646 ft 333 kts 222°
2026-05-04 12:40 53.11300 6.69657 25256 ft 332 kts 222°
2026-05-04 12:40 53.09484 6.67254 24871 ft 336 kts 222°
2026-05-04 12:40 53.07623 6.64790 24480 ft 348 kts 222°
2026-05-04 12:40 53.05714 6.62268 24044 ft 350 kts 221°
2026-05-04 12:41 53.03811 6.59763 23629 ft 348 kts 222°
2026-05-04 12:41 53.01922 6.57281 23145 ft 345 kts 222°
2026-05-04 12:41 53.00044 6.54815 22674 ft 342 kts 222°
2026-05-04 12:41 52.98189 6.52380 22266 ft 339 kts 222°
2026-05-04 12:42 52.96349 6.49969 21862 ft 336 kts 222°
2026-05-04 12:42 52.95139 6.48382 21588 ft 334 kts 222°
2026-05-04 12:42 52.93322 6.46002 21177 ft 331 kts 221°
2026-05-04 12:42 52.91520 6.43644 20782 ft 329 kts 221°
2026-05-04 12:43 52.89130 6.40518 20261 ft 326 kts 221°
2026-05-04 12:43 52.87952 6.38980 20015 ft 325 kts 221°
2026-05-04 12:43 52.86183 6.36675 19629 ft 323 kts 221°
2026-05-04 12:43 52.84421 6.34384 19250 ft 321 kts 221°
2026-05-04 12:44 52.82854 6.31786 18693 ft 321 kts 235°
2026-05-04 12:44 52.81569 6.28749 18203 ft 323 kts 237°
2026-05-04 12:44 52.80304 6.25672 17738 ft 323 kts 237°
2026-05-04 12:44 52.79046 6.22611 17332 ft 321 kts 237°
2026-05-04 12:45 52.77787 6.19570 16939 ft 319 kts 237°
2026-05-04 12:45 52.76535 6.16565 16564 ft 317 kts 236°
2026-05-04 12:45 52.75285 6.13580 16198 ft 315 kts 236°
2026-05-04 12:45 52.74040 6.10619 15829 ft 313 kts 236°
2026-05-04 12:46 52.72802 6.07684 15475 ft 311 kts 236°
2026-05-04 12:46 52.71568 6.04766 15111 ft 310 kts 236°
2026-05-04 12:46 52.70337 6.01858 14755 ft 309 kts 236°
2026-05-04 12:46 52.69155 5.99072 14406 ft 308 kts 236°
2026-05-04 12:47 52.67930 5.96187 14050 ft 307 kts 236°
2026-05-04 12:47 52.66707 5.93311 13677 ft 306 kts 236°
2026-05-04 12:47 52.65489 5.90448 13282 ft 305 kts 236°
2026-05-04 12:47 52.64287 5.87627 12902 ft 304 kts 236°
2026-05-04 12:48 52.63074 5.84784 12532 ft 302 kts 236°
2026-05-04 12:48 52.61870 5.81964 12170 ft 301 kts 235°
2026-05-04 12:48 52.60670 5.79155 11812 ft 299 kts 235°
2026-05-04 12:48 52.59478 5.76371 11455 ft 298 kts 235°
2026-05-04 12:49 52.58283 5.73580 11113 ft 297 kts 235°
2026-05-04 12:49 52.57095 5.70809 10763 ft 296 kts 235°
2026-05-04 12:49 52.55914 5.68055 10502 ft 292 kts 235°
2026-05-04 12:49 52.54760 5.65367 10371 ft 284 kts 235°
2026-05-04 12:50 52.53635 5.62755 10235 ft 276 kts 234°
2026-05-04 12:50 52.52542 5.60220 10127 ft 268 kts 234°
2026-05-04 12:50 52.51479 5.57757 10013 ft 261 kts 235°
2026-05-04 12:50 52.50643 5.55172 9903 ft 255 kts 249°
2026-05-04 12:51 52.50057 5.52415 9831 ft 260 kts 250°
2026-05-04 12:51 52.49461 5.49543 9729 ft 269 kts 250°
2026-05-04 12:51 52.48853 5.46626 9612 ft 271 kts 250°
2026-05-04 12:51 52.48239 5.43709 9486 ft 270 kts 250°
2026-05-04 12:52 52.47622 5.40803 9361 ft 269 kts 250°
2026-05-04 12:52 52.47004 5.37915 9259 ft 268 kts 250°
2026-05-04 12:52 52.46387 5.35040 9155 ft 266 kts 250°
2026-05-04 12:52 52.45771 5.32185 9043 ft 266 kts 250°
2026-05-04 12:53 52.45260 5.29820 8951 ft 265 kts 250°
2026-05-04 12:53 52.44646 5.26987 8851 ft 264 kts 250°
2026-05-04 12:53 52.44031 5.24155 8739 ft 263 kts 250°
2026-05-04 12:53 52.43416 5.21327 8630 ft 263 kts 250°
2026-05-04 12:54 52.42801 5.18508 8526 ft 263 kts 250°
2026-05-04 12:54 52.42187 5.15694 8430 ft 263 kts 250°
2026-05-04 12:54 52.41569 5.12867 8318 ft 263 kts 250°
2026-05-04 12:54 52.41375 5.11980 8277 ft 263 kts 250°
2026-05-04 12:55 52.40790 5.09310 8176 ft 264 kts 250°
2026-05-04 12:55 52.40169 5.06475 8079 ft 264 kts 250°
2026-05-04 12:55 52.39548 5.03644 7962 ft 265 kts 250°
2026-05-04 12:55 52.38925 5.00809 7849 ft 265 kts 250°
2026-05-04 12:56 52.38742 4.99978 7819 ft 265 kts 250°
2026-05-04 12:56 52.38368 4.98275 7756 ft 265 kts 250°
2026-05-04 12:56 52.37743 4.95438 7659 ft 265 kts 250°
2026-05-04 12:56 52.37122 4.92619 7550 ft 265 kts 250°
2026-05-04 12:57 52.36495 4.89781 7453 ft 265 kts 249°
2026-05-04 12:57 52.35914 4.87165 7344 ft 266 kts 249°
2026-05-04 12:57 52.35287 4.84345 7222 ft 261 kts 250°
2026-05-04 12:57 52.34526 4.81710 7085 ft 254 kts 230°
2026-05-04 12:58 52.33150 4.80023 7008 ft 245 kts 201°
2026-05-04 12:58 52.31517 4.79557 6804 ft 243 kts 177°
2026-05-04 12:58 52.29869 4.80197 6602 ft 241 kts 155°
2026-05-04 12:58 52.28518 4.81739 6398 ft 241 kts 139°
2026-05-04 12:59 52.27265 4.83569 6169 ft 243 kts 139°
2026-05-04 12:59 52.26007 4.85410 5935 ft 243 kts 139°
2026-05-04 12:59 52.24747 4.87242 5703 ft 243 kts 139°
2026-05-04 12:59 52.23481 4.89075 5466 ft 243 kts 140°
2026-05-04 13:00 52.22029 4.90363 5202 ft 239 kts 173°
2026-05-04 13:00 52.20396 4.90336 5042 ft 233 kts 184°
2026-05-04 13:00 52.18773 4.90173 4814 ft 233 kts 184°
2026-05-04 13:00 52.17155 4.90019 4587 ft 233 kts 184°
2026-05-04 13:01 52.15551 4.89867 4451 ft 228 kts 183°
2026-05-04 13:01 52.13992 4.89589 4420 ft 225 kts 200°
2026-05-04 13:01 52.12811 4.88028 4469 ft 226 kts 241°
2026-05-04 13:01 52.12423 4.85532 4478 ft 232 kts 264°
2026-05-04 13:02 52.11969 4.83035 4440 ft 232 kts 234°
2026-05-04 13:02 52.10775 4.81360 4446 ft 230 kts 202°
2026-05-04 13:02 52.09203 4.80919 4466 ft 230 kts 181°
2026-05-04 13:02 52.07615 4.81009 4424 ft 226 kts 170°
2026-05-04 13:03 52.06237 4.82077 4448 ft 220 kts 136°
2026-05-04 13:03 52.05480 4.84190 4440 ft 220 kts 101°
2026-05-04 13:03 52.05521 4.86662 4465 ft 223 kts 81°
2026-05-04 13:03 52.05820 4.89166 4461 ft 227 kts 79°
2026-05-04 13:04 52.06140 4.91687 4450 ft 229 kts 78°
2026-05-04 13:04 52.06470 4.94236 4441 ft 230 kts 78°
2026-05-04 13:04 52.06819 4.96770 4419 ft 229 kts 73°
2026-05-04 13:04 52.07444 4.99119 4453 ft 225 kts 65°
2026-05-04 13:05 52.08105 5.01419 4444 ft 224 kts 65°
2026-05-04 13:05 52.08758 5.03709 4436 ft 223 kts 65°
2026-05-04 13:05 52.09407 5.05987 4441 ft 222 kts 65°
2026-05-04 13:05 52.10052 5.08258 4443 ft 221 kts 65°
2026-05-04 13:06 52.10698 5.10532 4450 ft 224 kts 65°
2026-05-04 13:06 52.11361 5.12862 4459 ft 229 kts 65°
2026-05-04 13:06 52.12028 5.15210 4449 ft 229 kts 65°
2026-05-04 13:06 52.12692 5.17555 4427 ft 228 kts 65°
2026-05-04 13:07 52.13353 5.19885 4445 ft 225 kts 65°
2026-05-04 13:07 52.14010 5.22192 4448 ft 224 kts 65°
2026-05-04 13:07 52.14664 5.24494 4448 ft 223 kts 65°
2026-05-04 13:07 52.15311 5.26782 4437 ft 222 kts 65°
2026-05-04 13:08 52.15957 5.29064 4441 ft 222 kts 65°
2026-05-04 13:08 52.16607 5.31368 4457 ft 224 kts 65°
2026-05-04 13:08 52.17408 5.33539 4419 ft 226 kts 43°
2026-05-04 13:08 52.18766 5.34774 4248 ft 229 kts
2026-05-04 13:09 52.20323 5.34945 4082 ft 225 kts 359°
2026-05-04 13:09 52.21878 5.34925 3845 ft 221 kts 358°
2026-05-04 13:09 52.23401 5.34884 3592 ft 217 kts 357°
2026-05-04 13:09 52.24909 5.34842 3312 ft 218 kts 357°
2026-05-04 13:10 52.26419 5.34652 2994 ft 218 kts 342°
2026-05-04 13:10 52.27674 5.33350 2711 ft 215 kts 311°
2026-05-04 13:10 52.28607 5.31501 2398 ft 208 kts 304°
2026-05-04 13:10 52.29407 5.29565 2097 ft 202 kts 302°
2026-05-04 13:11 52.30130 5.27706 1987 ft 189 kts 302°
2026-05-04 13:11 52.30822 5.25906 1993 ft 185 kts 301°
2026-05-04 13:11 52.31494 5.24144 1982 ft 185 kts 301°
2026-05-04 13:11 52.32167 5.22375 1973 ft 182 kts 301°
2026-05-04 13:12 52.32831 5.20601 1983 ft 181 kts 297°
2026-05-04 13:12 52.33083 5.18645 2000 ft 179 kts 270°
2026-05-04 13:12 52.33099 5.16589 1989 ft 182 kts 270°
2026-05-04 13:12 52.33080 5.14520 1997 ft 184 kts 268°
2026-05-04 13:13 52.33049 5.13253 1989 ft 185 kts 267°
2026-05-04 13:13 52.32980 5.11140 1989 ft 186 kts 267°
2026-05-04 13:13 52.32903 5.09032 1986 ft 184 kts 267°
2026-05-04 13:13 52.32826 5.06969 1978 ft 180 kts 267°
2026-05-04 13:14 52.32751 5.04960 1965 ft 171 kts 267°
2026-05-04 13:14 52.32681 5.03083 1969 ft 162 kts 267°
2026-05-04 13:14 52.32613 5.01241 1989 ft 162 kts 267°
2026-05-04 13:14 52.32545 4.99376 1995 ft 167 kts 267°
2026-05-04 13:15 52.32475 4.97480 2009 ft 167 kts 267°
2026-05-04 13:15 52.32405 4.95565 1906 ft 169 kts 267°
2026-05-04 13:15 52.32336 4.93651 1701 ft 169 kts 266°
2026-05-04 13:15 52.32267 4.91745 1482 ft 167 kts 266°
2026-05-04 13:16 52.32199 4.89855 1241 ft 165 kts 267°
2026-05-04 13:16 52.32133 4.88006 1016 ft 160 kts 267°
2026-05-04 13:16 52.32071 4.86272 816 ft 148 kts 268°
2026-05-04 13:16 52.32011 4.84645 635 ft 143 kts 268°
2026-05-04 13:17 52.31956 4.83009 482 ft 148 kts 268°
2026-05-04 13:17 52.31895 4.81320 238 ft 147 kts 268°
2026-05-04 13:17 52.31839 4.79684 39 ft 144 kts 267°
2026-05-04 13:17 52.31800 4.78644 6 ft 138 kts 268°
2026-05-04 13:18 52.31756 4.77347 -3 ft 114 kts 266°
2026-05-04 13:18 52.31719 4.76292 -2 ft 71 kts 266°
2026-05-04 13:18 52.31699 4.75713 -2 ft 41 kts 266°
2026-05-04 13:18 52.31690 4.75462 -5 ft 17 kts 268°
2026-05-04 13:19 52.31684 4.75283 -4 ft 17 kts 266°
2026-05-04 13:19 52.31678 4.75122 -4 ft 25 kts 267°
2026-05-04 13:19 52.31652 4.74733 -1 ft 18 kts 243°
2026-05-04 13:19 52.31587 4.74661 -2 ft 11 kts 186°
2026-05-04 13:20 52.31511 4.74669 -2 ft 11 kts 176°
2026-05-04 13:20 52.31445 4.74680 -1 ft 11 kts 165°
2026-05-04 13:20 52.31404 4.74769 -2 ft 11 kts 89°
2026-05-04 13:20 52.31408 4.74892 -2 ft 11 kts 86°
2026-05-04 13:21 52.31412 4.75020 -2 ft 13 kts 90°
2026-05-04 13:21 52.31416 4.75174 -2 ft 13 kts 86°
2026-05-04 13:21 52.31421 4.75321 -2 ft 13 kts 86°
2026-05-04 13:21 52.31432 4.75467 -2 ft 13 kts 80°
2026-05-04 13:22 52.31432 4.75607 -2 ft 12 kts 86°
2026-05-04 13:22 52.31437 4.75745 -2 ft 12 kts 86°
2026-05-04 13:22 52.31443 4.75880 -2 ft 12 kts 85°
2026-05-04 13:22 52.31449 4.76029 -2 ft 14 kts 93°
2026-05-04 13:23 52.31455 4.76204 -2 ft 16 kts 89°
2026-05-04 13:23 52.31461 4.76406 -2 ft 19 kts 87°
2026-05-04 13:23 52.31469 4.76635 -2 ft 20 kts 87°
2026-05-04 13:23 52.31475 4.76818 -2 ft 15 kts 86°
2026-05-04 13:24 52.31482 4.77000 -2 ft 17 kts 87°
2026-05-04 13:24 52.31460 4.77192 -2 ft 18 kts 124°
2026-05-04 13:24 52.31374 4.77358 -2 ft 20 kts 130°
2026-05-04 13:25 52.31124 4.77494 -2 ft 21 kts 180°
2026-05-04 13:25 52.30973 4.77481 -2 ft 23 kts 183°
2026-05-04 13:25 52.30846 4.77457 -2 ft 9 kts 213°
2026-05-04 13:25 52.30838 4.77370 -2 ft 9 kts 274°
2026-05-04 13:26 52.30842 4.77252 -2 ft 11 kts 274°
2026-05-04 13:26 52.30846 4.77141 -2 ft 1 kts 273°
2026-05-04 13:26 52.30842 4.77115 -2 ft 3 kts 243°
2026-05-04 13:26 52.30822 4.77105 -2 ft 3 kts 185°
2026-05-04 13:27 52.30803 4.77102 -2 ft 2 kts 184°
2026-05-04 13:27 52.30796 4.77102 -2 ft 1 kts 183°
2026-05-04 13:27 52.30793 4.77102 -2 ft 0 kts 183°